Weather History for Buffalo, NY

Change the Weather History Date:

Friday, December 16, 2011

  Actual Average Record
Temperature  
Mean Temperature 37 °F 30 °F  
Max Temperature 41 °F 36 °F 64 °F (1984)
Min Temperature 33 °F 24 °F 0 °F (1876)
Degree Days  
Heating Degree Days 28 35  
Month to date heating degree days 445 524  
Since 1 July heating degree days 1464 1857  
Cooling Degree Days 0 0  
Month to date cooling degree days 0 0  
Year to date cooling degree days 776 544  
Moisture  
Dew Point 27 °F    
Average Humidity 71    
Maximum Humidity 82    
Minimum Humidity 59    
Precipitation  
Precipitation 0.03 in 0.13 in 1.50 in (1926)
Month to date precipitation 2.47 2.03  
Year to date precipitation 48.41 38.62  
Snow  
Snow T in 0.90 in 15.00 in (1926)
Month to date snowfall 2.8 12.3  
Since 1 July snowfall 2.8 21.1  
Snow Depth 0.00 in    
Sea Level Pressure  
Sea Level Pressure 30.11 in    
Wind  
Wind Speed 16 mph (West)    
Max Wind Speed 35 mph    
Max Gust Speed 45 mph    
Visibility 10 miles    
Events Rain , Snow , Thunderstorm    
T = Trace of Precipitation, MM = Missing Value Source: NWS Daily Summary

Daily Weather History Graph

Daily Weather History Graph

Search for Another Location

Airport:

Trip Planner

Search our weather history database for the weather conditions in past years. The results will help you decide how hot, cold, wet, or windy it might be!

Date:

Astronomy

Dec. 16, 2011 Rise Set
Actual Time 7:39 AM EST 4:41 PM EST
Civil Twilight 7:07 AM EST 5:13 PM EST
Nautical Twilight 6:31 AM EST 5:49 PM EST
Astronomical Twilight 5:56 AM EST 6:24 PM EST
Moon 11:21 PM EST (12/16) 11:16 AM EST (12/16)
Length of Visible Light 10h 06m
Length of Day
9h 01m
Waning Gibbous, 65% of the Moon is Illuminated
Dec 16
Waning Gibbous
Dec 17
Last Quarter
Dec 24
New
Jan 1
First Quarter
Jan 9
Full

Hourly Weather History & Observations

Time (EST) Temp. Windchill Dew Point Humidity Pressure Visibility Wind Dir Wind Speed Gust Speed Precip Events Conditions
12:19 AM 41.0 °F 31.1 °F 35.6 °F 81% 29.80 in 10.0 mi West 23.0 mph 33.4 mph 0.02 in Rain , Thunderstorm Light Thunderstorms and Rain
12:43 AM 37.4 °F 25.4 °F 33.8 °F 87% 29.82 in 3.0 mi WNW 27.6 mph 40.3 mph 0.02 in Rain Light Rain
12:54 AM 37.9 °F 26.1 °F 32.0 °F 79% 29.85 in 8.0 mi West 27.6 mph 41.4 mph 0.03 in Rain Light Rain
1:54 AM 36.0 °F 23.0 °F 26.1 °F 67% 29.91 in 10.0 mi West 29.9 mph 39.1 mph 0.00 in   Overcast
2:54 AM 36.0 °F 23.9 °F 24.1 °F 62% 29.98 in 10.0 mi West 25.3 mph 33.4 mph 0.00 in Snow Light Snow
3:54 AM 35.6 °F 24.2 °F 23.0 °F 60% 30.01 in 10.0 mi West 21.9 mph 29.9 mph N/A Snow Light Snow
4:54 AM 33.8 °F 22.5 °F 24.8 °F 70% 30.05 in 10.0 mi West 19.6 mph 25.3 mph N/A   Scattered Clouds
5:54 AM 35.1 °F 25.5 °F 24.1 °F 64% 30.11 in 10.0 mi West 15.0 mph 26.5 mph N/A   Mostly Cloudy
6:54 AM 34.0 °F 23.0 °F 24.1 °F 67% 30.15 in 10.0 mi West 18.4 mph 25.3 mph N/A   Mostly Cloudy
7:54 AM 34.0 °F 23.8 °F 23.0 °F 64% 30.16 in 10.0 mi West 16.1 mph 21.9 mph N/A   Mostly Cloudy
8:54 AM 34.0 °F 24.2 °F 23.0 °F 64% 30.19 in 10.0 mi West 15.0 mph 24.2 mph N/A   Mostly Cloudy
9:54 AM 35.1 °F 25.2 °F 24.1 °F 64% 30.21 in 10.0 mi West 16.1 mph 21.9 mph N/A   Mostly Cloudy
10:54 AM 36.0 °F 26.7 °F 25.0 °F 64% 30.19 in 10.0 mi West 15.0 mph 20.7 mph N/A   Mostly Cloudy
11:54 AM 37.9 °F 30.0 °F 26.1 °F 62% 30.17 in 10.0 mi WSW 12.7 mph - N/A   Mostly Cloudy
12:40 PM 37.4 °F 28.9 °F 26.6 °F 65% 30.17 in 10.0 mi WSW 13.8 mph 23.0 mph N/A   Mostly Cloudy
12:54 PM 37.0 °F 27.4 °F 26.1 °F 65% 30.18 in 10.0 mi SW 17.3 mph 21.9 mph N/A   Mostly Cloudy
1:54 PM 37.0 °F 27.4 °F 27.0 °F 67% 30.19 in 10.0 mi WSW 17.3 mph 25.3 mph N/A   Overcast
2:54 PM 35.6 °F 27.1 °F 26.6 °F 70% 30.16 in 10.0 mi WSW 12.7 mph 25.3 mph N/A   Overcast
3:39 PM 37.4 °F 28.5 °F 28.4 °F 70% 30.16 in 10.0 mi West 15.0 mph - N/A   Overcast
3:54 PM 37.0 °F 28.5 °F 27.0 °F 67% 30.18 in 10.0 mi West 13.8 mph 19.6 mph N/A   Overcast
4:54 PM 35.1 °F 27.9 °F 27.0 °F 72% 30.19 in 10.0 mi West 9.2 mph - 0.00 in   Overcast
5:54 PM 35.1 °F 25.9 °F 27.0 °F 72% 30.19 in 10.0 mi West 13.8 mph - N/A   Overcast
6:54 PM 34.0 °F 24.2 °F 27.0 °F 75% 30.18 in 10.0 mi West 15.0 mph - N/A   Overcast
7:54 PM 34.0 °F 24.6 °F 28.0 °F 79% 30.18 in 10.0 mi West 13.8 mph - 0.00 in Snow Light Snow
8:54 PM 34.0 °F 25.0 °F 27.0 °F 75% 30.18 in 10.0 mi West 12.7 mph - 0.00 in   Overcast
9:54 PM 34.0 °F 25.0 °F 27.0 °F 75% 30.18 in 9.0 mi West 12.7 mph - 0.00 in Snow Light Snow
10:54 PM 33.1 °F 24.4 °F 27.0 °F 78% 30.18 in 9.0 mi West 11.5 mph - 0.00 in Snow Light Snow
11:54 PM 33.1 °F 26.9 °F 28.0 °F 82% 30.18 in 9.0 mi West 6.9 mph - 0.00 in Snow Light Snow